Time,TemperatureF,DewpointF,PressureIn,WindDirection,WindDirectionDegrees,WindSpeedMPH,WindSpeedGustMPH,Humidity,HourlyPrecipIn,Conditions,Clouds,dailyrainin,SoftwareType,DateUTC
2013-05-04 00:01:00,51.0,41.0,-100.00,North,-999,1.0,2.0,68,-99.99,,,-99.99,,2013-05-04 07:01:00,
2013-05-04 01:00:00,54.0,42.0,-100.00,North,-999,3.0,6.0,63,-99.99,,,-99.99,,2013-05-04 08:00:00,
2013-05-04 01:01:00,50.0,41.0,-100.00,North,-999,2.0,3.0,71,-99.99,,,-99.99,,2013-05-04 08:01:00,
2013-05-04 02:00:00,52.0,44.0,-100.00,North,-999,0.0,1.0,74,-99.99,,,-99.99,,2013-05-04 09:00:00,
2013-05-04 04:02:00,51.0,43.0,-100.00,North,-999,2.0,5.0,73,-99.99,,,-99.99,,2013-05-04 11:02:00,
2013-05-04 05:00:00,46.0,43.0,-100.00,North,-999,1.0,3.0,89,-99.99,,,-99.99,,2013-05-04 12:00:00,
2013-05-04 05:04:00,49.0,44.0,-100.00,North,-999,1.0,3.0,82,-99.99,,,-99.99,,2013-05-04 12:04:00,
2013-05-04 06:00:00,45.0,44.0,-100.00,North,-999,3.0,6.0,96,-99.99,,,-99.99,,2013-05-04 13:00:00,
2013-05-04 07:00:00,48.0,42.0,-100.00,North,-999,3.0,6.0,79,-99.99,,,-99.99,,2013-05-04 14:00:00,
2013-05-04 08:00:00,55.0,41.0,-100.00,North,-999,3.0,7.0,59,-99.99,,,-99.99,,2013-05-04 15:00:00,
2013-05-04 10:00:00,64.0,36.0,-100.00,North,-999,5.0,10.0,35,-99.99,,,-99.99,,2013-05-04 17:00:00,
2013-05-04 10:02:00,62.0,37.0,-100.00,North,-999,6.0,12.0,39,-99.99,,,-99.99,,2013-05-04 17:02:00,
2013-05-04 11:00:00,66.0,37.0,-100.00,North,-999,6.0,15.0,34,-99.99,,,-99.99,,2013-05-04 18:00:00,
2013-05-04 12:00:00,67.0,36.0,-100.00,North,-999,3.0,15.0,31,-99.99,,,-99.99,,2013-05-04 19:00:00,
2013-05-04 14:00:00,68.0,35.0,-100.00,North,-999,6.0,13.0,29,-99.99,,,-99.99,,2013-05-04 21:00:00,
2013-05-04 14:02:00,67.0,35.0,-100.00,North,-999,2.0,14.0,30,-99.99,,,-99.99,,2013-05-04 21:02:00,
2013-05-04 15:00:00,70.0,36.0,-100.00,North,-999,2.0,13.0,28,-99.99,,,-99.99,,2013-05-04 22:00:00,
2013-05-04 17:01:00,69.0,35.0,-100.00,North,-999,5.0,14.0,28,-99.99,,,-99.99,,2013-05-05 00:01:00,
2013-05-04 18:01:00,68.0,35.0,-100.00,North,-999,5.0,13.0,29,-99.99,,,-99.99,,2013-05-05 01:01:00,
2013-05-04 18:20:00,67.0,34.0,-100.00,North,-999,2.0,6.0,29,-99.99,,,-99.99,,2013-05-05 01:20:00,
2013-05-04 19:00:00,66.0,33.0,-100.00,North,-999,1.0,6.0,29,-99.99,,,-99.99,,2013-05-05 02:00:00,
2013-05-04 19:02:00,67.0,34.0,-100.00,North,-999,2.0,6.0,29,-99.99,,,-99.99,,2013-05-05 02:02:00,
2013-05-04 19:11:00,67.0,34.0,-100.00,North,-999,2.0,6.0,29,-99.99,,,-99.99,,2013-05-05 02:11:00,
2013-05-04 20:00:00,59.0,32.0,-100.00,North,-999,0.0,0.0,35,-99.99,,,-99.99,,2013-05-05 03:00:00,
2013-05-04 21:00:00,55.0,34.0,-100.00,North,-999,0.0,0.0,44,-99.99,,,-99.99,,2013-05-05 04:00:00,
2013-05-04 22:00:00,53.0,33.0,-100.00,North,-999,0.0,0.0,46,-99.99,,,-99.99,,2013-05-05 05:00:00,